User: anonymous   Login
Location: Unspecified
(54.1780°N, 0.0000°E)
Time: 22:47:03
(UTC+00:00)
Language:

Altair - Orbit

View from above orbital plane
View from above orbital plane
View from above satellite
View from above satellite

Ground track
Ground track

The orbit data is extracted from the following two-line orbital elements,

1    50U 60009B   19167.86698588 -.00000099 +00000-0 -13224-3 0  9997
2    50 047.2286 179.0285 0114304 312.8086 046.3140 12.20109411625461
Epoch (UTC): 16 June 2019 20:48:27
Eccentricity: 0.0114304
inclination: 47.2286°
perigee height: 1501 km
apogee height: 1683 km
right ascension of ascending node: 179.0285°
argument of perigee: 312.8086°
revolutions per day: 12.20109411
mean anomaly at epoch: 46.3140°
orbit number at epoch: 62546

The dashed part of the orbit path shows where the satellite is in the earth's shadow,  

DLR